Regional Weather Roundup
Issued by NWS Cleveland, OH

Home | Current Version | Previous Version | Graphics & Text | Print | Product List | Glossary On
Versions: 1 2 3 4 5 6 7 8 9 10 11 12 13 14 15 16 17 18 19 20 21 22 23 24 25 26 27 28 29 30 31 32 33 34 35 36 37 38 39 40 41 42 43 44 45 46 47 48 49 50
000
ASUS41 KCLE 080012
RWRCLE
OHIO REGIONAL WEATHER ROUNDUP
NATIONAL WEATHER SERVICE WILMINGTON, OH
700 PM EST WED DEC 07 2016

NOTE: "FAIR" INDICATES FEW OR NO CLOUDS BELOW 12,000 FEET WITH NO
SIGNIFICANT WEATHER AND/OR OBSTRUCTIONS TO VISIBILITY.

OHZ001>008-015>018-024>027-034-035-043-044-080100-
   NORTHWEST OHIO

CITY           SKY/WX    TMP DP  RH WIND       PRES   REMARKS
DEFIANCE       MOCLDY    33  23  66 SW9       30.09S WCI  25
FINDLAY        CLOUDY    34  23  64 SW12      30.08S WCI  25
TOLEDO EXPRESS FAIR      32  24  72 W15       30.07S WCI  22
TOLEDO EXEC    MOCLDY    33  25  72 W9        30.08S WCI  25
LIMA           MOCLDY    32  25  75 W10       30.10R WCI  24
$$

OHZ009>014-019>023-028>033-038-089-080100-
   NORTHEAST OHIO

CITY           SKY/WX    TMP DP  RH WIND       PRES   REMARKS
CLE-HOPKINS    CLOUDY    36  22  56 SW9       30.08F
CLE-LAKEFRONT  MOCLDY    36  22  56 SW15      30.06S
CUY CO. ARPT   MOCLDY    36  23  60 W12       30.06S
LORAIN-ELYRIA  CLOUDY    33  24  69 SW8       30.07S WCI  26
ASHTABULA      CLOUDY    34  22  61 SW7       30.05S WCI  28
AKRON-CANTON   CLOUDY    34  22  61 SW6       30.06S WCI  29
WOOSTER        CLOUDY    34  21  59 W9        30.07S WCI  27
MANSFIELD      CLOUDY    32  23  69 SW8       30.06S WCI  25
YOUNGSTOWN     CLOUDY    34  22  61 SW10      30.05S WCI  26
$$

OHZ042-051>053-060>062-070>072-077>081-080100-
  SOUTHWEST OHIO

CITY           SKY/WX    TMP DP  RH WIND       PRES   REMARKS
CINC-COVINGTON MOCLDY    35  23  61 SW5       30.14S
CINC-LUNKEN    MOCLDY    35  25  66 SW6       30.16S
HAMILTON       CLOUDY    36  24  62 W3        30.16R
DAYTON         CLOUDY    32  24  72 W8        30.12R WCI  25
WRIGHT-PAT AFB MOCLDY    34  23  62 W8        30.12R WCI  28
DAYTON GENERAL CLOUDY    35  22  58 W3        30.12R
WILMINGTON     CLOUDY    34  24  67 W5        30.11F WCI  30
$$

OHZ036-037-039>041-045>050-054>059-063>069-073>076-082>088-080100-
  CENTRAL AND SOUTHEAST OHIO

CITY           SKY/WX    TMP DP  RH WIND       PRES   REMARKS
COLUMBUS       CLOUDY    36  25  64 SW6       30.11R
OSU AIRPORT    CLOUDY    35  26  69 SW6       30.10S
BOLTON FIELD   CLOUDY    33  25  73 SW6       30.11S WCI  28
RICKENBACK AFB   N/A     33  25  72 SW3G17    30.11S
NEWARK         CLOUDY    34  23  64 S5        30.10S WCI  30
MARION         CLOUDY    34  23  64 W8        30.09S WCI  27
LANCASTER      CLOUDY    35  26  69 S3        30.12S
ZANESVILLE     CLOUDY    36  24  62 SW3       30.11S
NEW PHILLY     CLOUDY    36  24  62 VRB3      30.10S
$$



USA.gov is the U.S. government's official web portal to all federal, state and local government web resources and services.